Home   Weather   Landeck   Past weeks

Flag for Austria Past Weather in Landeck, Tyrol, Austria — Yesterday and Last 2 Weeks

Now
46 °F

Cool.


Feels Like: 45 °F
Forecast: 33 / 47 °F
Wind: 3 mph from South

Location: Landeck

Current Time: Feb 21, 2017 at 6:04:19 pm

Latest Report: Feb 21, 2017 at 5:00 pm


Visibility: N/A

Pressure: 30.08 "Hg (27.34 "Hg at 784m altitude)

Humidity: 85%

Dew Point: 42 °F

Location of LandeckLocation

Past Weather in Landeck — Graph

°F

Landeck Temperature Yesterday

Maximum temperature yesterday: 51 °F (at 1:00 pm)
Minimum temperature yesterday: 36 °F (at 7:00 am)
Average temperature yesterday: 43 °F

High & Low Weather Summary for the Past Weeks

 TemperatureHumidityPressure
High55 °F (Feb 15, 2:00 pm)94% (Feb 8, 6:00 am)30.73 "Hg (Feb 8, 6:00 am)
Low25 °F (Feb 7, 7:00 am)23% (Feb 15, 2:00 pm)30.00 "Hg (Feb 10, 2:00 pm)
Average37 °F65%30.30 "Hg
* Reported Feb 6 4:00 pm — Feb 21 4:00 pm, Landeck, Weather by CustomWeather, © 2017

Note: Actual official high and low records may vary slightly from our data, if they occured in-between our weather recording intervals... More about our weather records

Advertising

Landeck Weather History for the Previous 24 Hours

Scroll right to see more
 ConditionsComfort  
Time TempWeatherWind HumidityBarometerVisibility
4:00 pm
Tue, Feb 21
47 °FCool.5 mph82%30.08 "HgN/A
3:00 pm46 °FCool.5 mph80%30.07 "HgN/A
2:00 pm45 °FQuite cool.6 mph79%30.09 "HgN/A
1:00 pm43 °FQuite cool.6 mph76%30.11 "HgN/A
12:00 pm42 °FFog.7 mph72%30.13 "HgN/A
11:00 am42 °FQuite cool.7 mph68%30.14 "HgN/A
10:00 amN/APassing clouds.99 mphN/AN/A1 mi
9:00 am43 °FQuite cool.3 mph56%30.14 "HgN/A
8:00 am42 °FQuite cool.3 mph73%30.14 "HgN/A
7:00 am42 °FQuite cool.5 mph54%30.15 "HgN/A
5:00 am42 °FPassing clouds.14 mph50%30.17 "Hg2 mi
4:00 am42 °FQuite cool.6 mph48%30.19 "HgN/A
3:00 am42 °FQuite cool.5 mph47%30.20 "HgN/A
2:00 am43 °FQuite cool.6 mph44%30.21 "HgN/A
1:00 am43 °FQuite cool.7 mph44%30.21 "HgN/A
12:00 am44 °FQuite cool.3 mph43%30.20 "HgN/A
11:00 pm
Mon, Feb 20
44 °FQuite cool.5 mph43%30.20 "HgN/A
10:00 pm44 °FQuite cool.6 mph42%30.20 "HgN/A
9:00 pm45 °FCool.5 mph41%30.19 "HgN/A
8:00 pm46 °FCool.3 mph40%30.17 "HgN/A
7:00 pm46 °FCool.5 mph41%30.17 "HgN/A
6:00 pm49 °FCool.2 mph36%30.15 "HgN/A
Weather by CustomWeather, © 2017

See weather overviewHow to use our weather pages